Kezdőlap
METAR-TAF:

METAR-TAF

Repülőterek :

Municipal_Airport

Cherokee, Iowa, Amerikai Egyesült Államok

földrajzi szélesség: 42-43-54N, földrajzi hosszúság: 095-33-21W, magasság: 374 m

Jelenlegi meteorológiai megfigyelések

A jelentés 32 perccel ezelõtt készült, 13:15 UTC
Északkeleti szél 4 kt
Hőmérséklet -11°C
Páratartalom 92%
Légköri nyomás 1025 hPa
Látótávolság: 16.1 km
Szórványos felhőzet 11000 lábon

METAR: KCKP 081315Z AUTO 04004KT 10SM SCT110 M11/M12 A3028 RMK AO2 T11111117

Idő: 07:47 (13:47 UTC)


TAF: hiányzik

Meteorológiai megfigyelések és előrejelzések több, mint 4000 repülőtéren (METAR és TAF jelentéseket).

A térképen piros és sárga pontok jelzik az elérhető meteorológiai állomásokat.

Mozgassa az egeret a pont fölött, hogy megjelenjen az állomás neve.

Azután kattintson az időjárási megfigyelések és előrejelzések megtekintéséhez.

A térkép megváltoztatása: kattintson a fekete keresztel jelölt zöld gombra ráközelítéshez, a vonallal jelölt zöld gombra távolításhoz, vagy a zöld nyilakra a szomszédos térképek eléréséhez.


METAR-TAF: